TECHSAT 1B (GO-32)

Last updated on Thu Oct 30 2025 00:02:30 GMT+0000 (Coordinated Universal Time)

1 25397U 98043D 25302.52203580 .00000156 00000+0 87831-4 0 9999 2 25397 98.9882 284.7216 0001895 128.9319 231.2028 14.24358171418498
UTC large
Height (km)
Speed (km/s)
/
Latitude / Longitude
Inclination (degrees)
Orbital Period (minutes)
Azimuth
Elevation
Range (km)
Doppler Factor

Next 0 passes for location: London (51.5072 / 0.1276)

Sorry there are no passes over London.